Location: *
(45.4590°N, 16.3650°E)
Time: 02:45:18
(UTC+00:00)

Cosmos 1626 Rocket - Pass Details

Date: 17 January 2020
Orbit: 603 x 631 km, 82.5° (Epoch: 22 February)

Event Time Altitude Azimuth Distance (km) Brightness Sun altitude
Rises 16:19:09 0° 162° (SSE) 2,868 7.0 -7.1°
Reaches altitude 10° 16:21:33 10° 152° (SSE) 1,964 6.1 -7.5°
Maximum altitude 16:25:22 31° 90° (E) 1,086 4.3 -8.1°
Drops below altitude 10° 16:29:11 10° 29° (NNE) 1,966 5.7 -8.7°
Sets 16:31:35 0° 19° (NNE) 2,872 6.6 -9.1°
